Brier Island, Nova Scotia

1:42 AM AST on November 23, 2017 (GMT -0400)
Brier Island

Weather History for CWVU - March, 2013

Change the Weather History Date:

Saturday, March 30, 2013

  Actual Average Record
Temperature  
Mean Temperature 40 °F -  
Max Temperature 44 °F - - ()
Min Temperature 36 °F - - ()
Degree Days  
Heating Degree Days 25    
Moisture  
Dew Point 30 °F    
Average Humidity 67    
Maximum Humidity 88    
Minimum Humidity 39    
Precipitation  
Precipitation 0.00 in - - ()
Sea Level Pressure  
Sea Level Pressure 30.01 in    
Wind  
Wind Speed 7 mph ()    
Max Wind Speed 12 mph    
Max Gust Speed -    
T = Trace of Precipitation, MM = Missing Value Source: Averaged Metar Reports

Daily Weather History Graph

Daily Weather History Graph

Search for Another Location

Airport or City:

Trip Planner

Search our weather history database for the weather conditions in past years. The results will help you decide how hot, cold, wet, or windy it might be!

Date:

Astronomy

Mar. 30, 2013 Rise Set
Actual Time 7:09 AM ADT 7:50 PM ADT
Civil Twilight 6:40 AM ADT 8:19 PM ADT
Nautical Twilight 6:06 AM ADT 8:54 PM ADT
Astronomical Twilight 5:30 AM ADT 9:30 PM ADT
Moon No Moon Rise 8:53 AM ADT (3/30)
Length of Visible Light 13h 39m
Length of Day
12h 40m
Waning Gibbous, 87% of the Moon is Illuminated
Mar 30
Waning Gibbous
Apr 3
Last Quarter
Apr 10
New
Apr 18
First Quarter
Apr 25
Full

Hourly Weather History & Observations

Time (ADT) Temp. Windchill Dew Point Humidity Pressure Visibility Wind Dir Wind Speed Gust Speed Precip Events Conditions
12:00 AM 40.8 °F 36.9 °F 37.4 °F 88% 29.96 in - SW 5.8 mph - N/A   Unknown
1:00 AM 40.6 °F 34.3 °F 36.5 °F 85% 29.96 in - WSW 10.4 mph - N/A   Unknown
2:00 AM 39.9 °F 37.8 °F 35.6 °F 85% 29.96 in - WNW 3.5 mph - N/A   Unknown
3:00 AM 40 °F - 36 °F 81% 29.96 in - NNW 8.1 mph - -  
3:00 AM 40.3 °F 34.9 °F 36.1 °F 85% 29.96 in - NNW 8.1 mph - N/A   Unknown
4:00 AM 38.8 °F 32.1 °F 34.3 °F 84% 29.96 in - NNW 10.4 mph - N/A   Unknown
5:00 AM 38.8 °F 32.6 °F 32.9 °F 79% 29.97 in - North 9.2 mph - N/A   Unknown
6:00 AM 38.1 °F 30.7 °F 30.9 °F 75% 29.98 in - North 11.5 mph - N/A   Unknown
7:00 AM 37.2 °F 31.2 °F 31.1 °F 79% 29.99 in - NNE 8.1 mph - N/A   Unknown
8:00 AM 38.5 °F 31.1 °F 29.3 °F 70% 30.01 in - North 11.5 mph - N/A   Unknown
9:00 AM 39 °F - 29 °F 58% 30.02 in - North 10.4 mph - -  
9:00 AM 38.7 °F 31.8 °F 29.5 °F 70% 30.02 in - North 10.4 mph - N/A   Unknown
10:00 AM 39.4 °F 33.2 °F 28.9 °F 66% 30.03 in - North 9.2 mph - N/A   Unknown
11:00 AM 40.6 °F 34.3 °F 28.0 °F 61% 30.04 in - North 10.4 mph - N/A   Unknown
12:00 PM 41.5 °F 36.4 °F 29.1 °F 61% 30.04 in - North 8.1 mph - N/A   Unknown
1:00 PM 41.2 °F 36.6 °F 25.0 °F 53% 30.03 in - North 6.9 mph - N/A   Unknown
2:00 PM 41.7 °F 38.0 °F 25.0 °F 52% 30.03 in - NW 5.8 mph - N/A   Unknown
3:00 PM 42 °F - 26 °F 39% 30.02 in - NW 4.6 mph - -  
3:00 PM 42.1 °F 39.2 °F 25.5 °F 52% 30.02 in - NW 4.6 mph - N/A   Unknown
4:00 PM 42.3 °F 39.4 °F 25.7 °F 52% 30.01 in - West 4.6 mph - N/A   Unknown
5:00 PM 41.9 °F 39.0 °F 28.8 °F 60% 30.01 in - WSW 4.6 mph - N/A   Unknown
6:00 PM 43.9 °F 39.9 °F 23.4 °F 44% 30.01 in - SW 6.9 mph - N/A   Unknown
7:00 PM 41.9 °F 36.9 °F 21.6 °F 44% 30.03 in - SW 8.1 mph - N/A   Unknown
8:00 PM 38.3 °F 33.2 °F 26.4 °F 62% 30.04 in - SW 6.9 mph - N/A   Unknown
9:00 PM 37 °F - 29 °F 62% 30.06 in - SSW 5.8 mph - -  
9:00 PM 37.4 °F 32.8 °F 28.8 °F 71% 30.06 in - SSW 5.8 mph - N/A   Unknown
10:00 PM 37.6 °F 34.0 °F 33.1 °F 84% 30.07 in - SSW 4.6 mph - N/A   Unknown
11:00 PM 37.6 °F 35.1 °F 33.6 °F 86% 30.08 in - SSE 3.5 mph - N/A   Unknown